Location: Jackson
(42.2460°N, 84.4010°W)
Time: 18:54:45
(UTC-04:00)

Courier 1B Rocket - Pass Details

Date: 13 February 2026
Orbit: 920 x 1201 km, 28.2° (Epoch: 13 March)

Event Time Altitude Azimuth Distance (km) Brightness Sun altitude
Rises 02:04:20 0° 255° (WSW) 3,845 - -57.1°
Reaches altitude 10° 02:07:58 10° 237° (WSW) 2,942 - -56.7°
Maximum altitude 02:12:36 18° 197° (SSW) 2,449 - -56.2°
Drops below altitude 10° 02:17:24 10° 157° (SSE) 3,057 - -55.7°
Sets 02:21:17 0° 140° (SE) 4,052 - -55.2°
